Kuiper-00115

operational
NORAD ID: 65152 Int'l Des: 2025-171 Owner: KUIP Country: US Constellation: kuiper
LEOCIRCULAR

Kuiper-00115について

説明を読み込み中...

リアルタイム位置

3D地球を読み込み中...

次回通過

高度履歴

Altitude vs Time

uPlot chart will show altitude changes over time

軌道要素

1 65152U 25171W 25350.26719388 -.00002009 00000-0 -23408-3 0 9997
2 65152 51.8980 176.9804 0009684 205.6128 154.4356 14.79923454 20398
Epoch: Dec 16, 2025 • Age: 15 hours

現在のステータス

高度 628.0 km
速度 7.55 km/s
衛星直下点 28.33°N, 81.11°W
打ち上げ日 Aug 11, 2025
運用期間 0.3 years
タイプ internet

技術仕様

分類 Payload
質量 490.00 kg
乾燥質量 490.00 kg
総質量 490.00 kg
長さ 1.80 m
直径 0.70 m
スパン 5.00 m
形状 Box + 2 pan
製造者 KUIP
バスタイプ Kuiper
フェーズステータス In Orbit
所有者/国 KUIP/US

大規模コンステレーション

Loading constellations...